Home > Weather > Waiblingen > Past weeks

Flag for Germany Weather for the Past 2 Weeks in Waiblingen, Baden-Württemberg, Germany

Now
52 °F

Clear.


Feels Like: 51 °F
Forecast: 45 / 72 °F
Wind: 3 mph from Northwest

Location: Stuttgart-Echterdingen

Current Time: May 7, 2016 at 1:38:24 AM

Latest Report: May 7, 2016 at 1:20 AM


Visibility: 10 mi

Pressure: 29.92 "Hg

Humidity: 72%

Dew Point: 43 °F

Location of WaiblingenLocation

Historic Weather in Waiblingen — Graph

°F

Waiblingen Temperature Yesterday

Maximum temperature yesterday: 73 °F (at 5:20 PM)
Minimum temperature yesterday: 41 °F (at 4:50 AM)
Average temperature yesterday: 58 °F

High & Low Weather Summary for the Past Weeks

 TemperatureHumidityPressure
High73 °F (May 6, 5:20 PM)100% (Apr 24, 10:50 PM)30.36 "Hg (Apr 24, 10:50 PM)
Low30 °F (Apr 29, 3:50 AM)27% (May 6, 5:20 PM)29.56 "Hg (Apr 26, 5:50 AM)
Average47 °F71%29.99 "Hg
* Reported Apr 22 12:20 AM — May 7 12:20 AM, Waiblingen, Weather by CustomWeather, © 2016

Note: Actual official high and low records may vary slightly from our data, if they occured in-between our weather recording intervals... More about our weather records

Advertising

Waiblingen Weather History for the Previous 24 Hours

Scroll right to see more
 ConditionsComfort  
Time TempWeatherWind HumidityBarometerVisibility
12:20 AM
Sat, May 7
54 °FClear.2 mph67%29.92 "Hg10 mi
11:50 PM
Fri, May 6
55 °FClear.2 mph63%29.92 "Hg10 mi
11:20 PM55 °FClear.3 mph67%29.92 "Hg10 mi
10:50 PM57 °FClear.2 mph59%29.92 "Hg10 mi
10:20 PM59 °FClear.1 mph55%29.92 "Hg10 mi
9:50 PM61 °FClear.1 mph52%29.92 "Hg10 mi
9:20 PM61 °FSunny.2 mph52%29.92 "Hg10 mi
8:50 PM63 °FSunny.7 mph49%29.92 "Hg10 mi
8:20 PM66 °FSunny.8 mph46%29.92 "Hg10 mi
7:50 PM70 °FPassing clouds.6 mph38%29.89 "HgN/A
7:20 PM70 °FPassing clouds.6 mph35%29.92 "HgN/A
6:50 PM72 °FPassing clouds.7 mph27%29.92 "HgN/A
6:20 PM72 °FPassing clouds.8 mph29%29.92 "HgN/A
5:50 PM73 °FPassing clouds.8 mph29%29.92 "HgN/A
5:20 PM73 °FPassing clouds.7 mph27%29.92 "HgN/A
4:50 PM72 °FPassing clouds.10 mph33%29.92 "HgN/A
4:20 PM72 °FPassing clouds.9 mph38%29.95 "HgN/A
3:50 PM72 °FPassing clouds.8 mph36%29.95 "HgN/A
3:20 PM72 °FSunny.5 mph36%29.95 "Hg10 mi
2:50 PM70 °FSunny.6 mph35%29.98 "Hg10 mi
2:20 PM70 °FSunny.5 mph35%29.98 "Hg10 mi
1:50 PM70 °FPassing clouds.8 mph38%29.98 "HgN/A
1:20 PM68 °FPassing clouds.6 mph40%30.01 "HgN/A
12:50 PM68 °FSunny.8 mph40%30.01 "Hg10 mi
12:20 PM66 °FPassing clouds.5 mph52%30.01 "HgN/A
11:50 AM64 °FSunny.3 mph56%30.04 "Hg10 mi
11:20 AM63 °FSunny.3 mph64%30.04 "Hg10 mi
10:50 AM61 °FSunny.2 mph63%30.04 "Hg10 mi
10:20 AM59 °FPassing clouds.3 mph63%30.04 "HgN/A
9:50 AM57 °FSunny.2 mph67%30.04 "Hg10 mi
9:20 AM55 °FPassing clouds.3 mph77%30.04 "HgN/A
8:50 AM54 °FPassing clouds.3 mph77%30.07 "HgN/A
8:20 AM50 °FSunny.2 mph88%30.07 "Hg10 mi
7:50 AM48 °FPassing clouds.3 mph87%30.04 "HgN/A
7:20 AM46 °FSunny.2 mph87%30.04 "Hg10 mi
6:50 AM43 °FClear.1 mph93%30.04 "Hg10 mi
6:20 AM41 °FClear.2 mph93%30.04 "Hg10 mi
5:50 AM43 °FClear.3 mph87%30.04 "Hg10 mi
5:20 AM43 °FClear.2 mph87%30.04 "Hg10 mi
4:50 AM41 °FClear.2 mph93%30.04 "Hg10 mi
4:20 AM43 °FClear.1 mph87%30.04 "Hg10 mi
3:50 AM45 °FClear.1 mph87%30.04 "Hg10 mi
3:20 AM45 °FClear.2 mph87%30.04 "Hg10 mi
2:50 AM45 °FClear.2 mph87%30.04 "Hg10 mi
2:20 AM46 °FClear.2 mph82%30.07 "Hg10 mi
1:50 AM45 °FClear.1 mph81%30.07 "Hg10 mi
1:20 AM48 °FClear.2 mph76%30.07 "Hg10 mi
Weather by CustomWeather, © 2016

See weather overviewHow to use our weather pages